Wind_Speed
63 64 65 66 67 67 68 68 69 70 71 72 73 75 77 77 77 77 77 77 78 77 77 77 78 80 82 84 85 86 88 88 89 91 93 94 96 99 101 103 105 106 108 109 110 110 110 111 111 111 112 113 114 115 116 116 116 116 116 116 116 116 117
61 63 64 65 66 67 68 69 69 70 71 72 73 74 76 77 78 77 77 77 77 77 77 77 77 79 81 82 84 86 87 88 88 90 91 92 95 97 99 101 104 105 107 107 108 109 110 111 112 112 112 112 112 112 114 115 115 116 116 116 117 117 118
60 61 63 64 66 66 67 68 69 69 70 71 72 73 74 75 76 77 77 76 76 76 76 77 77 78 79 81 83 85 86 87 88 89 90 91 93 96 98 100 102 103 104 105 107 108 109 110 111 112 112 112 112 112 113 113 112 113 113 113 114 115 116
60 61 62 64 65 66 67 68 69 69 69 68 69 71 72 72 73 75 75 75 74 74 75 75 76 77 78 80 81 83 85 86 87 88 89 91 92 94 95 97 99 100 101 102 104 105 106 107 109 110 110 110 110 111 111 111 111 111 111 112 112 113 114
62 62 63 64 66 67 68 69 69 69 68 67 68 68 68 68 69 71 72 73 72 72 72 73 75 76 77 78 80 82 83 84 86 87 88 90 91 92 93 94 96 97 98 99 100 101 102 104 105 106 106 106 107 108 109 109 110 110 111 111 112 113 114
64 64 65 66 66 67 68 69 69 68 67 67 67 67 66 65 66 67 69 70 70 69 70 71 73 74 76 77 79 81 82 83 84 86 87 89 90 91 92 93 94 95 95 95 96 97 97 98 99 100 100 101 103 104 105 106 107 108 109 110 110 111 112
67 66 67 67 67 67 68 69 68 67 67 67 66 64 64 63 63 63 64 66 66 66 66 68 70 72 74 76 77 79 81 82 83 84 86 88 89 91 92 93 93 93 93 92 92 92 92 93 93 94 95 96 97 98 100 101 103 104 105 106 107 108 109
68 68 67 67 67 67 68 68 67 67 67 65 63 63 62 61 59 58 59 60 61 61 62 64 67 70 72 74 76 77 79 81 82 83 85 87 89 90 91 92 92 91 90 89 89 89 89 89 89 90 91 92 93 94 95 96 98 99 100 102 103 104 105
70 68 67 67 67 68 69 68 67 66 64 62 61 60 59 58 56 53 53 54 56 58 59 61 63 66 69 71 73 74 76 78 79 81 83 85 87 88 89 90 89 89 88 88 88 88 88 87 87 88 88 89 90 90 91 92 93 94 95 97 97 98 99
69 68 67 67 66 67 69 68 66 64 61 59 58 58 56 54 52 50 49 50 53 55 57 58 60 62 65 67 69 71 73 74 76 77 79 81 83 85 86 87 87 87 87 87 87 87 87 87 86 86 87 87 87 88 88 89 89 90 91 92 93 93 93
69 68 67 67 67 67 68 67 65 61 58 56 55 54 52 50 48 47 47 47 50 52 54 56 57 58 60 62 64 67 69 71 72 74 75 77 79 81 83 84 85 85 86 86 87 87 87 86 86 86 86 86 86 86 86 86 87 88 88 89 90 91 91
69 69 68 67 67 68 67 65 62 58 55 54 52 49 47 46 45 44 44 44 46 48 50 52 53 54 56 58 60 63 65 68 69 70 71 73 75 77 79 81 82 83 84 85 86 86 86 86 86 86 86 86 86 86 86 86 87 87 88 89 90 92 92
70 70 69 68 68 67 65 62 58 54 51 50 48 45 44 43 42 41 41 42 42 44 46 47 49 50 52 54 57 59 61 63 65 66 67 68 70 72 74 76 78 80 81 83 84 85 85 85 86 86 86 87 87 87 87 87 87 87 88 88 89 91 92
72 71 70 69 68 65 62 58 54 50 47 45 43 41 40 40 40 39 39 40 40 41 43 45 46 48 49 51 53 54 57 59 60 61 63 64 65 67 69 71 73 75 77 79 81 82 83 84 84 85 86 86 87 87 88 88 88 88 88 88 89 91 92
74 73 71 69 66 63 58 54 49 46 43 41 39 38 37 38 38 38 38 38 39 40 41 42 44 45 46 47 49 50 52 54 55 57 58 59 60 62 63 65 67 70 73 75 77 78 79 80 82 82 83 84 85 86 87 88 88 89 89 89 89 91 92
75 73 71 68 64 59 54 49 45 42 40 39 37 36 35 35 36 36 36 37 37 38 39 40 42 43 44 45 46 47 49 50 51 52 54 55 56 57 59 60 63 65 68 71 72 74 75 76 78 79 80 80 81 83 84 85 86 86 87 87 87 89 90
74 72 70 66 61 55 49 45 42 40 39 38 37 36 35 35 35 35 36 36 36 37 38 39 40 41 42 43 44 45 47 48 49 50 51 53 54 55 56 58 61 63 66 68 70 71 73 74 76 77 78 78 79 80 81 82 83 84 85 85 85 87 88
71 70 67 63 57 51 45 41 39 38 38 38 37 36 36 35 35 36 36 36 36 37 37 38 39 40 41 42 43 44 46 47 48 49 50 52 53 54 55 58 61 63 65 67 69 71 72 74 75 77 77 78 78 79 80 81 82 83 84 84 85 86 87
68 66 62 58 52 46 41 39 38 38 38 38 38 38 38 37 37 37 37 37 37 38 38 39 39 40 41 42 43 44 45 47 48 49 51 52 53 54 55 58 61 63 65 67 69 70 72 74 75 76 77 77 78 79 80 81 82 83 84 85 85 87 87
64 61 56 52 47 42 39 38 38 38 39 39 39 39 39 39 39 40 40 39 39 39 40 40 41 42 42 43 44 45 46 47 48 50 51 52 53 55 56 59 60 62 65 67 68 71 72 74 75 76 77 78 78 79 81 82 83 84 85 86 87 88 89
58 54 51 47 43 39 38 39 39 40 40 40 40 40 41 41 42 42 42 42 42 42 42 43 44 44 45 45 45 46 47 48 49 50 51 52 54 56 58 59 61 64 66 67 69 71 73 74 75 76 77 78 79 80 82 83 84 84 85 87 88 89 90
52 49 46 44 40 38 38 40 41 42 42 42 42 42 43 44 44 45 45 45 45 45 45 46 47 47 48 48 48 48 49 49 50 51 51 52 54 55 57 59 61 64 66 68 70 72 74 75 76 76 77 79 80 81 82 83 83 84 85 86 87 88 89
47 45 43 41 39 39 40 42 43 43 44 44 45 45 46 46 47 48 48 48 48 48 49 50 51 51 51 51 52 52 52 52 53 53 54 55 55 56 58 60 61 64 66 68 70 72 74 75 75 76 77 79 80 81 82 82 83 83 84 84 85 86 87
44 42 40 39 39 41 42 43 44 45 46 47 48 48 48 49 50 50 51 51 51 51 52 53 54 55 55 55 55 56 55 56 56 56 57 58 58 59 60 62 63 65 67 69 71 72 73 74 75 76 77 78 79 80 81 82 82 82 83 84 85 86 87
42 41 40 40 40 42 43 45 46 47 49 50 51 51 52 53 53 53 53 54 54 54 55 56 57 58 58 59 60 59 59 59 59 60 60 61 62 63 64 65 66 67 69 71 72 73 74 76 77 77 78 79 80 81 82 83 83 84 85 86 87 87 89
41 41 40 41 42 43 45 47 49 50 51 53 54 55 55 56 56 57 57 57 57 57 57 58 60 61 62 63 63 63 63 63 63 64 64 64 65 66 67 68 69 71 72 74 75 76 77 79 80 81 82 83 83 85 86 87 87 88 89 90 91 91 93
42 42 43 43 44 46 47 49 51 53 55 56 57 59 59 59 60 60 61 61 61 60 61 62 63 65 66 66 66 66 66 66 66 67 67 68 69 70 71 72 73 74 76 77 78 79 81 82 84 85 86 87 87 89 91 92 92 93 94 95 96 96 98
44 45 45 46 47 49 50 52 54 56 58 59 60 62 63 63 64 64 64 64 64 65 65 66 67 68 69 69 69 69 69 69 69 70 70 72 73 73 74 75 77 78 79 80 81 82 84 86 87 89 90 91 92 93 95 96 96 97 99 100 100 101 102
47 48 48 49 51 52 54 56 58 60 61 62 63 65 66 67 67 67 68 68 68 68 69 70 71 71 72 72 73 72 72 72 72 73 74 75 76 77 78 79 80 81 82 83 84 86 88 89 91 92 93 95 96 98 99 100 101 102 103 104 104 105 105
50 51 52 53 55 57 59 61 63 64 65 66 67 68 69 70 70 70 70 71 71 72 72 73 74 75 75 75 75 75 76 76 76 77 78 79 79 80 82 82 83 84 85 86 88 89 91 92 94 95 97 98 99 101 102 103 104 104 105 105 106 106 107
53 55 56 58 59 61 63 65 67 68 69 69 70 71 72 73 73 73 73 74 74 75 75 76 77 77 77 78 78 78 79 80 80 81 82 83 84 84 85 86 87 87 88 89 91 92 93 95 96 98 99 100 101 102 104 105 106 106 107 107 107 108 109
58 59 61 62 64 66 68 70 71 72 73 73 73 74 74 75 75 75 76 76 77 78 78 79 79 79 80 80 80 81 82 83 83 84 85 86 87 88 88 89 89 90 91 92 93 94 95 97 98 99 100 101 102 103 105 106 107 108 109 109 109 110 111
62 64 65 67 68 70 71 73 74 75 76 76 76 76 76 77 77 78 78 78 79 80 80 81 81 82 82 83 83 84 84 85 86 87 88 88 89 90 91 91 92 92 93 94 95 95 96 98 99 100 100 101 102 104 105 106 108 109 110 111 111 112 113
66 68 70 71 72 73 75 76 76 77 77 77 77 78 78 78 79 79 80 80 81 81 82 83 83 84 85 85 86 87 87 88 89 89 90 91 92 92 93 94 94 95 96 96 97 98 99 100 101 101 102 103 104 104 105 107 108 110 111 111 112 113 113
71 72 73 75 76 77 78 78 78 79 79 79 79 79 79 80 80 81 82 82 83 83 84 85 86 87 87 88 89 90 90 91 92 93 94 95 95 96 97 97 98 98 99 99 100 100 101 102 102 103 103 103 104 104 105 106 108 109 110 111 111 112 113
76 77 77 78 78 79 79 79 79 80 80 81 81 82 82 83 83 84 84 85 86 87 87 88 89 90 91 91 92 93 94 94 95 96 97 98 98 99 100 100 101 101 101 101 102 102 103 103 103 104 104 104 104 105 106 107 108 109 110 111 112 113 113
Wind_Direction
296 294 292 291 290 288 287 286 284 283 282 281 280 279 278 277 275 273 272 270 269 267 264 262 259 257 255 255 255 255 255 255 255 255 254 254 253 253 253 253 253 253 253 253 253 253 254 254 254 254 254 253 253 253 253 253 252 252 252 252 252 253 253
297 295 292 291 290 288 287 286 285 284 284 283 282 281 280 278 277 275 273 271 269 267 265 263 260 258 256 255 254 254 254 255 255 255 255 254 254 253 253 253 253 253 253 254 254 254 255 255 255 255 254 254 254 255 255 255 255 255 254 254 255 255 255
300 297 295 293 292 291 291 290 289 288 287 286 284 282 280 279 277 276 273 271 269 267 265 263 261 259 257 256 254 254 254 254 255 255 255 255 254 254 254 254 253 254 254 254 255 255 255 255 256 256 256 256 255 256 256 256 257 257 257 257 257 257 257
304 301 299 298 298 297 297 296 295 294 292 290 287 284 282 280 278 276 274 272 269 267 265 263 261 258 257 256 255 254 254 254 255 255 255 256 256 256 256 256 256 256 255 256 256 256 257 257 257 258 258 258 258 258 258 258 258 258 258 258 258 258 259
308 306 305 304 303 302 301 300 299 298 297 294 290 287 285 282 279 277 274 272 270 267 264 262 260 258 256 255 255 255 254 254 254 255 256 256 257 257 257 257 257 257 257 257 257 257 258 258 259 259 260 260 261 261 261 261 260 260 260 260 259 259 260
312 311 310 309 307 305 304 303 302 301 299 297 294 291 288 285 281 278 275 273 270 267 264 261 259 258 256 255 254 254 254 253 253 254 255 255 256 257 257 258 258 258 258 258 258 258 259 260 261 261 262 262 262 262 262 262 262 262 262 262 261 261 261
316 315 313 310 308 307 306 305 304 303 301 298 296 294 291 288 285 281 277 274 270 267 264 261 258 257 256 255 254 253 253 253 253 253 253 254 255 256 257 257 258 259 259 259 260 260 260 261 262 262 262 262 262 262 262 262 262 262 262 262 262 262 262
318 315 313 311 309 308 307 306 305 304 302 300 298 296 294 291 287 283 279 275 271 268 264 260 258 257 256 255 254 254 254 254 254 254 254 254 254 255 256 257 259 260 260 261 261 262 261 261 261 262 262 262 262 262 262 262 263 263 263 263 263 263 263
318 316 314 312 310 309 308 306 306 304 302 300 299 298 295 292 289 284 279 275 272 269 265 262 259 257 256 256 255 255 254 254 255 255 255 255 255 255 256 257 259 260 261 262 262 262 262 262 262 262 262 262 263 263 263 264 264 264 265 265 265 265 265
317 315 314 312 311 309 308 307 305 303 302 301 300 298 296 293 290 286 281 276 273 270 267 264 261 259 258 257 256 256 255 255 256 256 256 256 256 256 256 256 257 259 260 261 262 262 263 263 263 263 263 263 263 264 264 265 265 266 266 266 266 266 266
316 315 314 312 311 309 308 306 305 302 301 301 300 298 296 294 292 289 284 279 275 272 270 268 265 263 261 259 258 258 257 257 257 257 257 256 256 256 256 256 256 257 258 259 261 262 263 263 264 264 264 265 265 265 265 265 265 265 266 266 266 266 266
316 315 314 312 311 309 307 305 303 301 301 301 300 299 297 296 294 292 289 285 280 277 274 272 270 267 265 262 261 260 259 259 259 258 258 257 257 257 257 256 257 257 257 258 259 260 261 262 263 264 265 265 266 266 265 265 265 265 265 265 265 266 266
315 314 313 311 309 307 305 303 300 299 299 301 300 300 300 299 298 296 294 291 287 284 281 278 276 272 269 266 264 263 262 261 261 260 260 259 259 258 258 258 258 258 258 259 259 260 261 262 263 263 264 265 265 266 266 266 266 266 266 266 266 267 267
315 313 312 309 307 305 303 300 296 296 298 300 300 302 302 302 301 300 298 295 293 290 287 284 281 278 275 272 269 266 265 264 263 263 262 262 261 260 260 260 260 260 260 260 261 261 262 262 263 263 264 264 265 266 267 267 268 268 268 268 269 269 269
313 312 309 307 305 302 300 295 292 293 296 298 300 303 304 305 304 304 302 300 297 295 291 288 285 282 279 276 273 270 268 266 265 264 264 264 263 262 262 262 262 262 262 262 262 263 263 264 264 265 265 265 266 267 267 268 268 269 269 269 269 270 270
311 309 307 305 302 300 296 291 288 291 294 296 299 303 305 306 306 306 305 303 301 299 296 292 289 286 282 279 276 274 271 269 268 266 266 265 265 264 264 264 263 263 263 263 263 264 264 264 265 265 265 266 266 267 267 267 268 268 269 269 269 270 271
309 307 306 303 300 297 292 286 285 288 292 294 297 301 303 305 306 306 306 305 304 302 299 296 293 290 286 283 279 277 275 273 271 269 267 266 265 264 264 264 263 263 263 263 263 264 264 264 265 265 266 266 266 267 268 268 269 269 269 270 270 270 271
307 305 303 301 298 294 287 281 282 286 289 292 296 299 301 303 304 304 305 305 304 303 301 299 297 294 290 287 285 282 280 277 275 273 271 269 267 266 265 264 263 263 263 264 264 264 264 265 265 266 266 267 267 268 268 269 269 270 270 270 271 271 271
305 303 301 298 295 290 282 278 280 284 288 291 295 297 299 300 302 302 303 303 303 303 302 300 298 295 293 291 289 287 284 282 280 278 276 274 272 270 268 266 265 265 265 265 265 265 265 266 266 267 267 268 268 268 269 269 269 270 271 271 272 272 272
303 301 298 295 292 285 277 276 279 283 286 290 293 295 297 298 299 299 300 300 300 301 300 299 297 295 293 292 291 289 286 284 282 280 279 278 277 275 272 271 270 269 268 267 267 267 267 267 268 268 269 269 269 269 269 269 270 270 271 271 272 272 272
300 298 296 293 288 280 275 275 278 282 285 289 291 293 294 295 296 296 297 297 298 298 297 296 295 293 292 292 290 288 287 285 283 282 280 279 278 276 274 273 272 271 271 270 270 270 270 270 271 271 271 271 271 271 271 271 271 271 271 272 272 272 272
297 296 295 290 284 278 275 276 278 281 285 287 289 291 292 293 294 294 295 295 295 295 295 294 293 292 292 291 289 288 286 285 284 283 282 280 278 277 276 274 273 272 271 271 271 271 271 271 272 272 272 272 272 272 272 272 272 272 272 272 272 272 272
295 295 292 287 282 278 276 278 280 282 285 287 288 289 290 291 292 292 293 293 293 293 293 292 291 291 291 290 289 287 286 285 285 284 283 282 281 279 278 277 276 275 274 273 273 272 272 273 273 273 273 273 273 273 273 273 273 273 273 273 273 273 273
294 292 290 286 282 280 280 281 282 284 285 286 288 289 289 290 290 291 291 291 291 291 291 290 290 290 290 289 287 287 286 286 285 284 283 282 282 281 280 279 278 277 277 276 276 275 275 275 275 275 275 275 274 274 274 274 274 274 274 274 274 274 274
291 290 288 286 284 283 283 284 284 285 286 286 288 288 289 289 290 290 290 290 289 289 289 289 289 288 288 287 287 287 287 287 286 284 283 283 282 281 280 280 279 278 278 277 277 277 277 277 277 277 276 276 276 276 276 276 276 276 275 275 275 275 275
288 288 288 287 286 286 285 285 286 286 286 287 288 289 289 289 289 288 288 288 288 288 288 287 286 286 285 286 286 287 286 286 285 285 284 284 283 282 281 280 280 279 278 278 278 278 278 278 278 278 277 277 277 277 277 277 276 276 276 276 275 275 275
287 287 287 287 287 287 286 286 286 286 287 288 289 289 289 288 288 287 287 287 288 287 286 285 284 284 285 285 285 285 284 284 284 284 284 283 282 282 281 280 280 279 279 279 279 279 279 278 278 278 278 278 278 278 277 277 277 277 277 276 276 276 276
287 287 288 288 288 287 287 287 286 286 287 288 288 288 287 287 287 287 287 287 286 286 285 284 284 284 284 284 284 283 283 283 283 283 282 281 281 280 280 279 279 278 278 278 278 278 278 277 277 278 277 277 277 277 277 277 277 276 276 276 276 276 276
288 288 288 289 288 287 287 286 286 286 287 287 287 286 286 286 286 286 286 286 285 285 284 284 284 283 283 283 283 283 283 283 282 281 280 280 279 279 278 278 278 277 277 277 277 276 276 276 276 276 276 276 276 276 276 276 276 276 276 276 276 276 277
288 289 290 290 289 288 288 287 287 287 287 287 287 286 286 286 286 286 286 286 285 285 284 284 283 283 283 284 284 284 284 283 282 281 281 280 280 279 278 278 277 277 277 276 276 276 275 275 275 275 275 275 275 275 276 276 276 276 277 277 278 278 278
290 290 291 291 290 289 289 288 288 288 288 287 287 287 287 287 287 287 286 286 285 285 284 284 284 284 284 285 285 284 284 283 283 282 282 281 281 280 279 279 278 278 277 277 276 276 276 276 276 276 276 276 277 277 278 278 279 279 279 280 280 280 280
291 291 291 291 291 290 289 289 289 288 288 288 287 287 287 287 287 286 286 285 285 285 284 284 284 284 285 284 284 283 283 283 282 282 281 281 280 280 280 279 279 278 278 278 277 277 277 277 277 277 277 278 278 279 279 279 280 280 280 280 280 280 279
291 291 291 290 290 289 289 288 288 288 287 287 287 287 287 286 286 286 285 285 285 285 285 285 285 285 284 284 284 283 283 283 282 282 281 281 281 280 280 280 279 279 279 278 278 278 278 278 278 278 278 278 278 278 278 278 278 278 278 278 278 278 278
290 289 289 289 289 288 288 287 287 287 287 287 287 286 286 286 285 285 285 285 285 285 285 285 285 285 285 284 284 284 283 283 283 282 282 282 282 281 281 281 281 280 280 280 279 279 279 278 278 278 278 277 277 277 277 277 277 277 277 277 277 277 277
289 289 289 289 289 288 288 288 288 288 288 288 287 287 287 286 286 286 286 286 286 286 285 285 285 285 284 284 284 284 284 284 283 283 283 283 283 283 283 282 282 282 282 281 281 280 280 279 279 279 278 278 278 278 278 278 278 278 278 278 278 278 278
290 290 290 289 289 289 289 289 289 289 289 288 288 288 287 287 287 286 286 286 286 286 285 285 285 285 285 285 284 284 284 284 284 284 284 284 284 284 283 283 283 283 282 282 282 281 281 281 280 280 280 279 279 279 279 279 279 279 278 278 278 278 278
Height
10337 10334 10330 10327 10323 10320 10316 10313 10309 10305 10301 10297 10292 10288 10285 10283 10281 10280 10279 10278 10277 10277 10276 10277 10277 10278 10279 10279 10279 10280 10280 10282 10285 10286 10287 10289 10291 10292 10293 10294 10295 10297 10299 10301 10304 10307 10311 10313 10316 10318 10322 10324 10327 10329 10332 10335 10337 10340 10342 10344 10345 10346 10347
10328 10324 10320 10316 10312 10309 10305 10302 10298 10294 10289 10285 10281 10276 10272 10270 10268 10266 10266 10265 10264 10264 10264 10264 10264 10264 10265 10266 10267 10267 10268 10269 10271 10272 10273 10275 10277 10277 10279 10280 10281 10282 10285 10288 10291 10294 10297 10298 10300 10302 10305 10309 10313 10315 10317 10320 10324 10327 10330 10332 10334 10334 10335
10318 10313 10309 10305 10301 10297 10293 10289 10286 10282 10278 10273 10268 10264 10260 10257 10254 10252 10251 10251 10251 10251 10251 10251 10251 10252 10252 10253 10254 10255 10255 10257 10258 10259 10261 10262 10262 10263 10264 10266 10267 10270 10273 10276 10278 10280 10282 10284 10285 10287 10291 10295 10299 10301 10304 10307 10311 10314 10317 10319 10321 10321 10321
10307 10303 10298 10293 10289 10284 10280 10276 10272 10268 10265 10261 10256 10252 10248 10245 10242 10239 10238 10238 10238 10238 10238 10238 10238 10239 10239 10240 10241 10243 10244 10245 10246 10247 10248 10249 10249 10250 10252 10253 10255 10259 10261 10264 10266 10268 10270 10271 10272 10275 10279 10283 10286 10288 10291 10294 10296 10299 10302 10303 10305 10305 10305
10296 10292 10287 10282 10278 10273 10268 10263 10259 10255 10252 10248 10243 10239 10236 10233 10230 10228 10225 10224 10224 10225 10225 10225 10226 10226 10227 10228 10229 10230 10232 10233 10234 10235 10236 10236 10237 10238 10239 10241 10243 10245 10248 10251 10254 10256 10258 10259 10260 10264 10268 10271 10273 10275 10276 10278 10280 10282 10284 10286 10287 10289 10289
10286 10281 10276 10272 10267 10262 10257 10252 10247 10243 10239 10235 10231 10227 10224 10221 10218 10216 10213 10212 10212 10212 10213 10213 10213 10214 10215 10216 10217 10218 10219 10220 10221 10223 10224 10224 10225 10226 10227 10227 10229 10231 10235 10238 10241 10244 10246 10248 10250 10253 10256 10258 10259 10260 10261 10262 10264 10265 10266 10268 10270 10271 10271
10275 10271 10266 10261 10257 10252 10246 10241 10237 10233 10228 10224 10220 10216 10213 10210 10207 10204 10202 10200 10199 10200 10201 10201 10202 10202 10203 10204 10205 10206 10207 10208 10209 10211 10212 10213 10213 10214 10214 10215 10217 10220 10223 10227 10230 10233 10236 10238 10239 10241 10242 10243 10244 10245 10246 10246 10247 10248 10249 10251 10252 10254 10254
10265 10261 10256 10251 10246 10241 10236 10231 10227 10223 10218 10213 10209 10206 10202 10199 10196 10193 10191 10189 10188 10189 10190 10190 10191 10192 10192 10193 10194 10195 10196 10197 10198 10200 10201 10201 10202 10203 10203 10205 10207 10210 10213 10216 10219 10221 10223 10225 10227 10228 10228 10229 10230 10231 10231 10232 10233 10234 10234 10235 10237 10239 10239
10255 10251 10246 10241 10236 10231 10226 10221 10218 10213 10208 10204 10200 10196 10192 10189 10186 10184 10182 10180 10179 10179 10179 10180 10181 10182 10182 10183 10184 10185 10186 10187 10188 10189 10190 10191 10192 10193 10195 10196 10198 10200 10203 10205 10207 10208 10211 10213 10215 10216 10216 10217 10218 10219 10219 10220 10221 10222 10221 10221 10223 10225 10225
10245 10240 10236 10231 10226 10221 10216 10212 10208 10204 10199 10196 10192 10188 10184 10180 10177 10175 10173 10172 10170 10170 10170 10170 10171 10172 10173 10174 10174 10175 10176 10177 10178 10179 10180 10181 10183 10184 10186 10187 10189 10190 10192 10193 10195 10196 10198 10201 10203 10204 10205 10206 10207 10208 10208 10209 10209 10210 10210 10209 10209 10212 10213
10234 10229 10225 10221 10216 10212 10207 10202 10199 10195 10191 10188 10184 10180 10176 10173 10169 10167 10165 10164 10163 10162 10162 10162 10162 10163 10164 10164 10165 10166 10166 10167 10168 10169 10170 10171 10172 10174 10175 10177 10178 10180 10181 10182 10183 10185 10186 10189 10191 10192 10194 10195 10196 10196 10198 10198 10198 10198 10198 10197 10196 10197 10199
10224 10219 10215 10211 10207 10203 10198 10194 10190 10187 10183 10180 10177 10173 10169 10166 10163 10160 10158 10157 10156 10155 10154 10154 10154 10155 10155 10155 10156 10156 10157 10158 10158 10159 10160 10161 10162 10164 10165 10166 10168 10169 10170 10171 10172 10174 10175 10177 10180 10181 10182 10183 10183 10184 10185 10186 10186 10186 10185 10185 10184 10182 10183
10214 10209 10205 10201 10197 10193 10190 10186 10182 10179 10176 10173 10170 10166 10162 10159 10157 10154 10152 10150 10149 10148 10147 10147 10147 10147 10147 10147 10148 10148 10148 10149 10150 10150 10152 10153 10154 10155 10156 10157 10158 10159 10160 10161 10161 10163 10164 10166 10168 10170 10171 10170 10171 10172 10172 10172 10173 10173 10173 10173 10172 10170 10168
10203 10199 10195 10192 10188 10184 10181 10178 10175 10172 10170 10167 10164 10160 10156 10153 10151 10149 10147 10145 10143 10142 10141 10140 10140 10140 10140 10140 10140 10140 10141 10141 10142 10143 10144 10145 10146 10147 10148 10148 10149 10150 10150 10151 10151 10152 10154 10155 10156 10158 10159 10159 10159 10160 10160 10160 10160 10160 10161 10161 10160 10157 10154
10192 10189 10185 10182 10178 10175 10172 10169 10167 10165 10163 10160 10158 10154 10151 10148 10146 10143 10141 10140 10138 10137 10136 10135 10134 10133 10133 10133 10133 10133 10134 10134 10135 10135 10136 10137 10137 10138 10140 10140 10141 10141 10140 10140 10141 10142 10143 10144 10145 10146 10148 10148 10148 10149 10149 10149 10148 10147 10148 10148 10146 10143 10140
10181 10178 10175 10171 10168 10165 10163 10161 10159 10158 10156 10154 10151 10149 10146 10144 10141 10139 10137 10135 10133 10132 10130 10129 10129 10128 10127 10127 10127 10127 10127 10127 10127 10128 10128 10129 10129 10130 10131 10132 10132 10131 10130 10130 10131 10132 10133 10133 10133 10134 10135 10136 10137 10137 10136 10136 10135 10134 10135 10135 10133 10130 10128
10171 10167 10163 10160 10158 10156 10154 10153 10152 10151 10149 10147 10145 10143 10141 10139 10137 10135 10133 10131 10129 10127 10126 10124 10124 10123 10122 10122 10121 10121 10120 10120 10120 10120 10121 10121 10121 10122 10123 10123 10122 10121 10120 10120 10121 10122 10122 10122 10121 10121 10122 10124 10126 10125 10124 10123 10122 10121 10121 10122 10121 10119 10116
10161 10157 10153 10150 10148 10146 10145 10145 10144 10144 10142 10140 10139 10137 10135 10133 10132 10130 10128 10127 10125 10123 10122 10120 10119 10118 10117 10116 10115 10115 10114 10114 10114 10113 10113 10113 10113 10114 10115 10114 10112 10111 10111 10111 10111 10111 10111 10111 10110 10110 10111 10113 10114 10114 10113 10112 10110 10109 10109 10109 10108 10107 10105
10151 10147 10144 10140 10138 10137 10137 10137 10137 10136 10135 10133 10132 10130 10129 10127 10126 10125 10123 10122 10120 10119 10117 10115 10114 10113 10112 10111 10110 10109 10108 10108 10107 10107 10106 10106 10106 10107 10107 10105 10103 10103 10102 10101 10101 10100 10100 10099 10099 10099 10100 10101 10102 10102 10102 10100 10098 10097 10096 10096 10095 10093 10092
10142 10138 10135 10132 10130 10129 10129 10129 10130 10129 10127 10126 10125 10124 10122 10121 10120 10119 10117 10116 10115 10113 10112 10110 10109 10108 10106 10105 10104 10103 10103 10102 10101 10100 10100 10099 10099 10099 10098 10096 10095 10094 10093 10092 10091 10090 10088 10088 10088 10088 10089 10089 10089 10090 10089 10088 10086 10086 10085 10084 10083 10080 10079
10133 10129 10127 10124 10123 10123 10123 10123 10123 10122 10120 10119 10119 10117 10116 10115 10113 10112 10111 10110 10108 10107 10106 10104 10103 10102 10101 10100 10099 10098 10096 10096 10095 10094 10094 10093 10093 10092 10091 10089 10088 10086 10084 10083 10081 10079 10078 10077 10077 10078 10078 10077 10077 10077 10076 10075 10074 10074 10074 10072 10071 10069 10067
10125 10122 10120 10118 10116 10116 10116 10116 10116 10115 10113 10112 10112 10111 10109 10108 10106 10105 10104 10103 10101 10100 10099 10097 10095 10094 10093 10093 10092 10091 10090 10089 10088 10087 10087 10086 10085 10084 10083 10082 10080 10078 10076 10074 10072 10070 10068 10067 10067 10067 10066 10066 10065 10063 10062 10062 10062 10062 10061 10060 10058 10057 10055
10117 10115 10113 10111 10110 10110 10110 10110 10109 10108 10106 10105 10105 10104 10102 10101 10099 10097 10096 10095 10094 10092 10091 10089 10087 10086 10085 10084 10083 10083 10082 10081 10080 10079 10078 10077 10076 10076 10074 10073 10071 10069 10067 10065 10062 10060 10059 10057 10057 10057 10055 10054 10053 10051 10050 10049 10048 10048 10048 10047 10045 10043 10042
10109 10108 10106 10105 10104 10104 10103 10103 10102 10100 10099 10097 10097 10096 10095 10093 10091 10090 10088 10087 10086 10084 10082 10080 10078 10077 10076 10075 10074 10074 10073 10073 10072 10071 10069 10068 10067 10066 10065 10063 10061 10059 10057 10055 10052 10050 10049 10047 10046 10046 10044 10042 10041 10039 10037 10036 10036 10035 10034 10033 10032 10030 10028
10102 10101 10099 10098 10098 10097 10097 10096 10094 10093 10091 10090 10089 10088 10087 10085 10083 10082 10080 10078 10077 10076 10074 10071 10069 10067 10066 10065 10064 10064 10064 10063 10062 10061 10060 10059 10058 10056 10054 10053 10051 10049 10047 10044 10041 10040 10039 10036 10034 10033 10032 10030 10028 10026 10024 10023 10023 10022 10020 10018 10018 10017 10014
10094 10093 10092 10091 10091 10090 10089 10088 10086 10085 10084 10082 10081 10080 10079 10077 10075 10073 10071 10069 10068 10067 10065 10062 10059 10057 10055 10054 10054 10054 10053 10053 10052 10051 10050 10049 10047 10045 10043 10042 10040 10037 10035 10033 10030 10029 10027 10024 10021 10020 10018 10017 10015 10012 10009 10008 10008 10007 10004 10002 10003 10002 9998
10086 10085 10084 10084 10083 10082 10081 10080 10078 10077 10075 10074 10073 10071 10069 10068 10066 10064 10062 10060 10059 10058 10055 10052 10049 10046 10045 10044 10043 10043 10042 10042 10041 10040 10039 10038 10036 10034 10032 10030 10028 10025 10023 10021 10019 10017 10014 10010 10008 10006 10004 10003 10001 9998 9993 9992 9993 9991 9987 9985 9986 9986 9982
10078 10077 10076 10076 10075 10074 10072 10071 10069 10068 10067 10066 10065 10062 10059 10058 10056 10054 10052 10051 10050 10047 10044 10042 10039 10037 10035 10033 10032 10031 10031 10030 10030 10028 10027 10025 10023 10022 10020 10018 10016 10013 10011 10009 10008 10005 10001 9997 9995 9993 9990 9988 9987 9983 9978 9977 9977 9976 9972 9969 9969 9968 9965
10069 10068 10068 10067 10066 10065 10063 10062 10060 10058 10058 10057 10055 10052 10049 10048 10046 10044 10042 10041 10039 10036 10034 10031 10028 10026 10024 10022 10021 10020 10019 10018 10017 10015 10013 10011 10010 10008 10006 10004 10002 10000 9998 9996 9994 9991 9987 9984 9982 9979 9976 9973 9971 9967 9963 9961 9961 9959 9956 9954 9952 9951 9949
10061 10059 10059 10058 10056 10055 10053 10051 10049 10048 10047 10046 10043 10041 10038 10036 10035 10034 10031 10029 10027 10024 10022 10019 10016 10013 10011 10010 10009 10007 10005 10004 10003 10001 9998 9997 9995 9993 9991 9989 9988 9986 9984 9982 9979 9976 9973 9970 9967 9964 9961 9958 9956 9952 9947 9945 9944 9942 9940 9938 9936 9935 9932
10052 10050 10049 10048 10046 10044 10042 10040 10038 10036 10035 10033 10031 10029 10026 10024 10022 10021 10019 10016 10014 10011 10009 10006 10003 10001 9999 9998 9996 9994 9991 9989 9988 9986 9983 9981 9979 9977 9974 9973 9971 9970 9968 9966 9963 9960 9958 9955 9952 9949 9946 9942 9940 9937 9932 9929 9926 9924 9923 9921 9919 9917 9914
10041 10039 10038 10037 10035 10033 10030 10028 10025 10023 10022 10020 10018 10016 10015 10012 10010 10008 10006 10003 10001 9998 9995 9992 9990 9988 9987 9985 9983 9980 9977 9975 9974 9971 9968 9966 9963 9960 9958 9956 9955 9953 9951 9949 9946 9944 9941 9938 9935 9933 9931 9927 9924 9922 9918 9914 9910 9906 9904 9903 9901 9898 9895
10030 10028 10027 10025 10024 10022 10019 10017 10014 10011 10009 10007 10006 10004 10002 10000 9997 9995 9992 9989 9987 9984 9981 9979 9977 9974 9972 9970 9968 9966 9963 9961 9958 9955 9952 9950 9947 9944 9941 9939 9937 9936 9934 9932 9929 9927 9925 9922 9919 9917 9915 9913 9909 9907 9903 9899 9894 9890 9887 9885 9883 9879 9876
10019 10017 10016 10014 10012 10010 10007 10005 10002 10000 9997 9995 9993 9991 9989 9986 9984 9981 9978 9975 9973 9970 9968 9965 9963 9960 9957 9954 9952 9950 9947 9944 9941 9938 9935 9933 9930 9928 9925 9922 9920 9918 9916 9914 9913 9911 9908 9905 9903 9901 9899 9896 9894 9891 9888 9883 9878 9873 9869 9866 9863 9860 9857
10008 10006 10004 10002 9999 9996 9994 9991 9988 9986 9983 9981 9979 9976 9974 9972 9969 9967 9964 9961 9959 9956 9953 9950 9948 9945 9942 9939 9936 9933 9930 9928 9925 9922 9919 9916 9914 9911 9909 9906 9903 9901 9899 9897 9895 9893 9890 9887 9885 9882 9879 9878 9876 9873 9869 9865 9860 9855 9851 9847 9844 9840 9837
9994 9992 9990 9988 9986 9983 9980 9978 9975 9972 9969 9966 9963 9961 9958 9956 9954 9952 9949 9947 9944 9941 9938 9935 9932 9929 9926 9923 9920 9917 9914 9911 9909 9906 9903 9900 9898 9895 9892 9889 9886 9883 9880 9878 9875 9872 9869 9866 9864 9861 9859 9857 9855 9852 9849 9845 9841 9836 9831 9828 9824 9820 9817